Binar 3
1 60957U 98067WX  24266.81982442  .00183968  00000-0  23066-2 0  9999
2 60957  51.6336 190.9174 0006822  41.6717 318.4794 15.58581573  5782
